Regional Weather Roundup
Issued by NWS

Home | Current Version | Previous Version | Text Only | Print | Product List | Glossary Off
Versions: 1 2 3 4 5 6 7 8 9 10 11 12 13 14 15 16 17 18 19 20 21 22 23 24 25 26 27 28 29 30 31 32 33 34 35 36 37 38 39 40 41 42 43 44 45 46 47 48 49 50

000
ASUS43 KBIS 290002
RWRND

NORTH DAKOTA REGIONAL WEATHER ROUNDUP
NATIONAL WEATHER SERVICE BISMARCK ND
700 PM CDT THU APR 28 2016

NOTE: "FAIR" INDICATES FEW OR NO CLOUDS BELOW 12,000 FEET WITH NO
SIGNIFICANT WEATHER AND/OR OBSTRUCTIONS TO VISIBILITY.


NDZ001>003-009>011-017-290100-
NORTHWEST NORTH DAKOTA

CITY           SKY/WX    TMP DP  RH WIND       PRES   REMARKS
WILLISTON      PTSUNNY   56  17  21 E16       30.13S
6HR MIN TEMP:  53; 6HR MAX TEMP:  58;

MINOT          MOSUNNY   59  12  15 E12       30.14S
MINOT AFB      PTSUNNY   55  15  20 SE12      30.13S
$$

NDZ018>021-031>035-040>046-290100-
SOUTHWEST NORTH DAKOTA

CITY           SKY/WX    TMP DP  RH WIND       PRES   REMARKS
BISMARCK       CLOUDY    54  24  31 E9        30.10R
6HR MIN TEMP:  53; 6HR MAX TEMP:  57;

DICKINSON      CLOUDY    50  25  37 NE14      30.08S
GARRISON         N/A     54  17  23 E12       30.12R
6HR MIN TEMP:  52; 6HR MAX TEMP:  58;

HETTINGER ARPT CLOUDY    46  33  60 N6        30.11S
$$

NDZ004>008-012>016-024-026-027-054-290100-
NORTHEAST NORTH DAKOTA

CITY           SKY/WX    TMP DP  RH WIND       PRES   REMARKS
GRAND FORKS    MOSUNNY   56  25  30 NE13      30.12S
GRND FRKS AFB  MOSUNNY   55  23  28 NE12      30.13S
DEVILS LAKE    MOSUNNY   54  21  27 E12       30.14S
$$

NDZ022-023-025-028>030-036>039-047>053-290100-
SOUTHEAST NORTH DAKOTA

CITY           SKY/WX    TMP DP  RH WIND       PRES   REMARKS
FARGO          CLOUDY    59  22  24 E8        30.06S
6HR MIN TEMP:  55; 6HR MAX TEMP:  62;

JAMESTOWN      CLOUDY    53  23  31 E13       30.09S
$$





USA.gov is the U.S. government's official web portal to all federal, state and local government web resources and services.